Weather in Kalevala

Russia / Republic of Karelia     65°11′51″N   31°11′03″E
temp.,
°C
wind,
m/s
gust,
m/s
humid.,
%
clouds,
%
prec.,
mm/h
press.,
hPa
HPBL,
m
18 september, sat
sat1800:00+5ene1273100 0.0 103035
03:00+5ene1172100 0.0 103111
06:00+4ene1179100 0.0 103127
09:00+5e0180100 0.0 103286
12:00+6se1172100 0.0 1032383
15:00+7se1165100 0.0 1032729
18:00+6se1172100 0.1 103230
21:00+5se1174100 0.2 103211
19 september, sun
sun1900:00+5se1175100 0.0 103214
03:00+5sse1176100 0.0 103310
06:00+4ese1177100 0.0 103310
09:00+6se117299 0.0 1034203
12:00+8se125990 0.1 10341104
15:00+8s115877 0.3 10341075
18:00+7ese116636 0.1 103410
21:00+3ese11785 0.1 103410
20 september, mon
mon2000:00+2se11805 0.0 103610
03:00+1ese11825 0.0 103610
06:000ene11835 0.0 103610
09:00+4ese12682 0.0 1037167
12:00+8se22555 0.0 1036827
15:00+9se12515 0.0 10351107
18:00+6ese11665 0.0 103412
21:00+3e11795 0.0 103410
21 september, tue
tue2100:00+2ese11895 0.0 103313
03:00+1ese11945 0.0 103212
06:000ese119272 0.0 103110
09:00+3ese1176100 0.0 103087
12:00+6ese226673 0.0 1029561
15:00+6se2361100 0.0 1027532
18:00+5sse1169100 0.0 102612
21:00+3se117836 0.0 102611
22 september, wed
wed2200:00+1se22875 0.0 102613
03:000sse22905 0.0 102514
06:00−1sse22935 0.0 102418
09:00+2s3675100 0.0 1023275
12:00+6s4660100 0.0 1022797
15:00+8s465420 0.0 1020925
18:00+6sse2670100 0.0 1019111
21:00+3sse3684100 0.0 1018113